Regional Weather Roundup
Issued by NWS

Home | Current Version | Previous Version | Text Only | Print | Product List | Glossary Off
Versions: 1 2 3 4 5 6 7 8 9 10 11 12 13 14 15 16 17 18 19 20 21 22 23 24 25 26 27 28 29 30 31 32 33 34 35 36 37 38 39 40 41 42 43 44 45 46 47 48 49 50

000
ASUS43 KIND 160959
RWRIN

WEATHER ROUNDUP FOR INDIANA
NATIONAL WEATHER SERVICE INDIANAPOLIS IN
600 AM EDT TUE SEP 16 2014

NOTE: "FAIR" INDICATES FEW OR NO CLOUDS BELOW 12,000 FEET WITH NO
SIGNIFICANT WEATHER AND/OR OBSTRUCTIONS TO VISIBILITY.

* - STATION DOES NOT REPORT WEATHER SUCH AS PRECIPITATION OR FOG.

+ - STATION NOT QUALITY CONTROLLED BY THE NATIONAL WEATHER SERVICE.
    USE DATA WITH CAUTION...ESPECIALLY DEWPOINT AND RELATIVE
    HUMIDITY OBSERVATIONS.

INZ001>003-010>013-019-020-161100-
NORTHWEST INDIANA

CITY           SKY/WX    TMP DP  RH WIND       PRES   REMARKS
GARY /AIRPORT/ MOCLDY    52  48  87 W8        30.18S
VALPARAISO     CLOUDY    52  51  97 W3        30.18R

$$

LMZ046-743>745-161100-
SOUTHERN LAKE MICHIGAN

STATION/POSITION TIME  TEMP WIND        PRES
                       AIR  DIR/SP/G
                 (UTC) (F)  (DEG/KT/KT) (MB)
MICHIGAN CITY    0900   57   30/ 12/ 17   N/A

$$

INZ004-005-014>016-021>024-161100-
NORTH CENTRAL INDIANA

CITY           SKY/WX    TMP DP  RH WIND       PRES   REMARKS
GOSHEN         FOG       46  44  93 N3        30.15F VSB 1/4
PERU/GRISSOM   CLOUDY    52 N/A N/A N9        30.16R
SOUTH BEND     PTCLDY    51  48  89 CALM      30.18R
WARSAW +       CLEAR     48  46  93 CALM      30.15S FOG

$$

INZ006>009-017-018-025>027-161100-
NORTHEAST INDIANA

CITY           SKY/WX    TMP DP  RH WIND       PRES   REMARKS
ANGOLA *+      CLOUDY    52  39  62 CALM      30.15F
FORT WAYNE     CLOUDY    53  52  96 CALM      30.16R FOG

$$

INZ028-029-035-036-043>045-051>053-161100-
WEST CENTRAL INDIANA

CITY           SKY/WX    TMP DP  RH WIND       PRES   REMARKS
GREENCASTLE +  CLOUDY    54  52  94 N7        30.17R
LAFAYETTE      PTCLDY    51  51 100 NW3       30.16R FOG
TERRE HAUTE    CLOUDY    55  53  93 N10       30.17R

$$

INZ030>032-037>040-046>048-054>057-064-065-161100-
CENTRAL INDIANA

CITY           SKY/WX    TMP DP  RH WIND       PRES   REMARKS
FRANKFORT +    CLOUDY   N/A N/A N/A N7        30.16S FOG
INDIANAPOLIS   MOCLDY    54  51  90 N7        30.14R
-EAGLE CREEK   CLOUDY    54  51  90 N10       30.15R
KOKOMO *+      CLOUDY    52  50  93 N9        30.17R
MT COMFORT *+  CLOUDY    54 N/A N/A N7        30.15R
SHELBYVILLE    CLOUDY    57  53  86 N6        30.13R

$$

INZ033-034-041-042-049-050-058-059-161100-
EAST CENTRAL INDIANA

CITY           SKY/WX    TMP DP  RH WIND       PRES   REMARKS
MUNCIE         MOCLDY    52  50  93 N8        30.14R

$$

INZ060-061-067>069-081>083-085>088-161100-
SOUTHWEST INDIANA

CITY           SKY/WX    TMP DP  RH WIND       PRES   REMARKS
EVANSVILLE     CLOUDY    60  56  86 NW10      30.14S

$$

INZ062-063-066-070>080-084-089>092-161100-
SOUTH CENTRAL AND SOUTHEAST INDIANA

CITY           SKY/WX    TMP DP  RH WIND       PRES   REMARKS
BLOOMINGTON    CLOUDY    56  54  93 N7        30.15R
SEYMOUR +      CLOUDY    59  57  94 N5        30.13

$$




USA.gov is the U.S. government's official web portal to all federal, state and local government web resources and services.